Visibility
15.0 15.0 15.0 15.0 15.0 15.0 15.0 12.8 15.0 15.0 15.0 15.0 15.0 15.0 15.0 15.0 15.0 15.0 15.0 15.0 15.0 15.0 15.0 15.0 10.1 5.7 15.0 12.8 14.7 8.9 14.1 15.0 15.0 15.0 15.0 15.0 15.0 15.0 15.0 15.0 15.0 15.0 15.0
15.0 15.0 15.0 15.0 15.0 15.0 15.0 15.0 15.0 15.0 15.0 15.0 15.0 15.0 15.0 15.0 15.0 15.0 10.3 15.0 15.0 15.0 15.0 15.0 15.0 15.0 15.0 15.0 14.6 15.0 15.0 15.0 15.0 15.0 15.0 15.0 15.0 15.0 15.0 15.0 15.0 15.0 15.0
15.0 15.0 15.0 15.0 15.0 15.0 14.1 15.0 5.3 15.0 11.2 14.6 7.9 15.0 15.0 15.0 15.0 15.0 15.0 14.8 15.0 1.7 15.0 15.0 15.0 8.2 3.6 14.2 15.0 15.0 15.0 15.0 15.0 15.0 15.0 15.0 15.0 15.0 15.0 15.0 15.0 15.0 15.0
15.0 15.0 15.0 15.0 15.0 15.0 15.0 15.0 15.0 15.0 15.0 15.0 15.0 15.0 15.0 15.0 15.0 15.0 15.0 15.0 15.0 15.0 0.2 15.0 15.0 15.0 15.0 15.0 15.0 15.0 15.0 15.0 15.0 15.0 15.0 15.0 15.0 15.0 15.0 15.0 15.0 15.0 15.0
15.0 15.0 15.0 15.0 15.0 15.0 15.0 15.0 15.0 15.0 15.0 15.0 15.0 15.0 15.0 15.0 15.0 15.0 15.0 15.0 15.0 15.0 15.0 8.2 15.0 15.0 15.0 15.0 15.0 15.0 15.0 15.0 15.0 15.0 15.0 15.0 15.0 15.0 15.0 15.0 15.0 15.0 15.0
15.0 15.0 15.0 15.0 15.0 15.0 15.0 15.0 15.0 15.0 15.0 15.0 15.0 15.0 15.0 15.0 15.0 15.0 15.0 15.0 15.0 15.0 15.0 7.6 15.0 15.0 15.0 15.0 15.0 15.0 15.0 15.0 15.0 15.0 15.0 15.0 15.0 15.0 15.0 15.0 15.0 15.0 15.0
15.0 15.0 15.0 15.0 15.0 15.0 15.0 15.0 15.0 15.0 15.0 15.0 15.0 15.0 15.0 13.7 15.0 15.0 15.0 15.0 15.0 15.0 15.0 15.0 14.6 15.0 15.0 15.0 15.0 15.0 15.0 15.0 15.0 15.0 15.0 15.0 15.0 15.0 15.0 15.0 15.0 15.0 15.0
15.0 15.0 15.0 15.0 15.0 15.0 15.0 15.0 15.0 15.0 15.0 15.0 15.0 15.0 15.0 15.0 15.0 15.0 15.0 15.0 15.0 15.0 15.0 15.0 15.0 10.1 13.7 15.0 15.0 15.0 15.0 15.0 15.0 15.0 15.0 15.0 15.0 15.0 15.0 15.0 15.0 15.0 15.0
15.0 15.0 15.0 15.0 15.0 15.0 15.0 15.0 15.0 15.0 15.0 15.0 15.0 15.0 15.0 15.0 15.0 15.0 15.0 15.0 15.0 15.0 15.0 15.0 15.0 15.0 8.7 12.4 10.1 15.0 15.0 15.0 12.1 13.5 15.0 15.0 15.0 15.0 15.0 15.0 15.0 15.0 15.0
15.0 15.0 15.0 15.0 15.0 15.0 15.0 15.0 15.0 15.0 15.0 15.0 15.0 15.0 15.0 15.0 15.0 15.0 15.0 15.0 15.0 15.0 15.0 15.0 15.0 15.0 15.0 15.0 12.8 8.0 15.0 15.0 13.0 11.1 8.0 15.0 15.0 15.0 15.0 15.0 15.0 15.0 15.0
15.0 15.0 15.0 15.0 15.0 15.0 15.0 15.0 15.0 15.0 15.0 15.0 15.0 15.0 15.0 15.0 15.0 15.0 15.0 15.0 15.0 15.0 15.0 15.0 15.0 12.7 14.7 15.0 5.6 15.0 15.0 15.0 15.0 14.5 14.8 11.3 15.0 15.0 15.0 15.0 15.0 15.0 15.0
15.0 15.0 15.0 15.0 15.0 15.0 15.0 15.0 15.0 15.0 15.0 15.0 15.0 15.0 15.0 15.0 15.0 15.0 15.0 15.0 15.0 15.0 15.0 15.0 15.0 15.0 15.0 15.0 15.0 15.0 15.0 15.0 14.8 10.7 11.0 9.7 15.0 15.0 15.0 15.0 15.0 15.0 15.0
14.9 15.0 15.0 15.0 14.9 15.0 15.0 15.0 14.8 15.0 15.0 15.0 15.0 15.0 9.7 15.0 15.0 15.0 15.0 15.0 15.0 15.0 15.0 15.0 15.0 13.4 15.0 15.0 12.4 15.0 4.6 0.5 12.9 13.2 15.0 15.0 15.0 15.0 15.0 15.0 15.0 15.0 15.0
13.5 15.0 13.5 15.0 15.0 15.0 8.6 14.6 15.0 15.0 15.0 15.0 15.0 15.0 15.0 5.4 15.0 15.0 15.0 15.0 15.0 15.0 15.0 15.0 15.0 15.0 8.8 15.0 15.0 9.5 3.7 0.2 15.0 15.0 15.0 15.0 15.0 15.0 15.0 15.0 15.0 15.0 15.0
14.0 15.0 13.8 13.9 13.3 15.0 12.5 13.9 8.8 13.7 13.6 15.0 15.0 15.0 15.0 13.7 4.6 15.0 15.0 8.5 8.2 9.6 13.5 15.0 15.0 15.0 15.0 15.0 15.0 15.0 15.0 1.6 15.0 8.3 14.4 15.0 15.0 15.0 15.0 15.0 15.0 15.0 15.0
7.3 15.0 15.0 15.0 12.0 14.9 15.0 12.1 15.0 12.4 12.1 15.0 15.0 8.8 15.0 15.0 15.0 15.0 15.0 15.0 14.8 8.8 11.8 15.0 15.0 15.0 15.0 15.0 11.0 15.0 15.0 6.6 10.6 11.9 15.0 15.0 15.0 15.0 15.0 15.0 15.0 15.0 15.0
15.0 15.0 15.0 15.0 12.7 10.3 10.5 15.0 15.0 15.0 6.7 13.6 15.0 15.0 15.0 6.0 15.0 5.8 15.0 15.0 15.0 12.7 15.0 15.0 15.0 15.0 15.0 15.0 15.0 15.0 15.0 15.0 8.7 4.0 4.8 13.2 15.0 15.0 14.3 15.0 15.0 15.0 15.0
15.0 15.0 15.0 15.0 15.0 14.2 0.7 1.0 13.2 15.0 14.8 14.8 15.0 15.0 15.0 14.0 15.0 15.0 15.0 15.0 15.0 15.0 15.0 15.0 15.0 15.0 15.0 15.0 15.0 0.2 0.4 15.0 15.0 0.5 8.9 9.2 12.8 5.6 4.9 15.0 15.0 15.0 15.0
15.0 15.0 15.0 15.0 15.0 15.0 15.0 15.0 15.0 0.8 8.1 9.6 15.0 5.4 6.7 15.0 15.0 15.0 4.0 5.3 15.0 11.6 5.3 15.0 15.0 15.0 15.0 15.0 15.0 11.9 2.7 1.5 13.2 0.2 0.5 5.9 10.3 15.0 11.0 10.0 13.9 15.0 15.0
15.0 15.0 15.0 15.0 14.9 15.0 15.0 15.0 15.0 14.8 15.0 13.2 12.4 12.1 15.0 13.6 9.6 5.6 9.6 8.8 15.0 13.4 15.0 12.7 15.0 15.0 15.0 15.0 13.6 0.0 0.0 0.4 0.1 4.8 0.2 1.6 0.3 0.2 0.5 1.1 5.6 10.1 13.0
5.3 15.0 13.5 15.0 15.0 10.7 9.9 13.0 15.0 8.8 6.7 6.7 6.4 8.3 7.7 3.8 0.2 1.5 6.9 10.3 7.2 15.0 15.0 15.0 15.0 15.0 15.0 0.1 0.0 0.7 0.7 11.3 13.8 6.0 0.2 0.2 0.1 0.1 0.1 0.1 0.9 5.4 13.1
15.0 15.0 15.0 13.1 14.9 14.4 9.7 3.8 8.9 5.8 7.5 10.5 9.6 6.4 5.0 6.0 0.2 0.1 0.1 0.1 14.8 15.0 9.0 14.9 15.0 15.0 15.0 15.0 15.0 15.0 15.0 15.0 0.1 0.6 0.7 0.1 10.4 0.1 1.1 3.9 4.1 0.2 0.1
15.0 15.0 15.0 15.0 15.0 12.0 15.0 9.4 15.0 15.0 15.0 14.7 3.6 13.0 7.4 13.2 8.6 15.0 4.5 0.2 0.1 0.1 0.1 8.5 15.0 15.0 15.0 15.0 15.0 15.0 15.0 15.0 15.0 0.1 13.2 0.1 2.1 0.1 0.2 1.9 15.0 3.1 2.0
15.0 15.0 15.0 15.0 15.0 15.0 15.0 15.0 15.0 15.0 15.0 15.0 13.4 10.6 5.5 6.1 15.0 5.3 9.3 0.3 2.0 12.8 0.3 0.2 1.6 11.4 14.6 15.0 15.0 15.0 15.0 0.8 0.2 0.1 15.0 0.1 0.2 0.1 0.1 0.2 12.5 11.4 12.7
15.0 15.0 14.2 13.3 13.6 15.0 15.0 15.0 15.0 15.0 15.0 15.0 15.0 13.4 8.8 15.0 15.0 15.0 15.0 0.7 0.1 0.1 0.3 0.6 1.0 2.5 11.2 13.8 0.2 15.0 0.9 0.0 0.0 0.0 0.0 8.8 0.1 0.1 0.1 0.1 0.1 11.0 8.7
15.0 15.0 14.9 15.0 15.0 7.9 15.0 15.0 15.0 14.4 15.0 15.0 15.0 15.0 15.0 12.5 11.7 7.8 6.2 1.3 0.2 0.1 0.1 0.3 0.2 0.3 3.6 0.6 10.0 0.1 0.1 0.1 0.0 0.0 0.0 0.4 3.8 3.1 0.2 0.9 0.1 0.1 0.3